Powrót do katalogu

BREEZE-M DEB

AktywnyHEO
NORAD 32494·DEBRIS·🇷🇺 Russia

Wystrzelony Feb 28, 2006 z Baikonur Cosmodrome

Loading…

Następne Przeloty (najbliższe 24 godziny)

TLE

ŚwieżeSource: Space-Track

Epoka: Sep 13, 2026, 21:01 UTC

1 32494U 06006AH  26256.87621035  .00001108  00000-0  13484-2 0  9999
2 32494  51.6291  73.8475 5078128  99.3626 319.1671  5.29942888374601

Śledź BREEZE-M DEB w czasie rzeczywistym z AllMySat

Download on the App Store